Regional Weather Roundup
Issued by NWS

Home | Current Version | Previous Version | Graphics & Text | Print | Product List | Glossary On
Versions: 1 2 3 4 5 6 7 8 9 10 11 12 13 14 15 16 17 18 19 20 21 22 23 24 25 26 27
000
ASUS45 KBOU 160007
RWRCO

WEATHER ROUNDUP FOR COLORADO
NATIONAL WEATHER SERVICE DENVER/BOULDER CO
600 PM MDT SUN OCT 15 2017

NOTE: "FAIR" INDICATES FEW OR NO CLOUDS BELOW 12000 FEET WITH NO
SIGNIFICANT WEATHER AND/OR OBSTRUCTIONS TO VISIBILITY.

COZ001>005-013-030-031-160100-
...NORTHWEST COLORADO...

CITY           SKY/WX    TMP DP  RH WIND       PRES   REMARKS
CRAIG          FAIR      59  10  14 CALM      30.44F
HAYDEN         FAIR      56  12  17 NW3       30.47F
MEEKER         FAIR      61   8  12 CALM      30.44S
RABBIT EARS PA FAIR      37  12  35 W6        30.62R
STEAMBOAT SPGS FAIR      56  12  17 CALM      30.47S
WALDEN         FAIR      50  12  22 SW6       30.52R
$$

COZ006>008-011-160100-
...WEST CENTRAL VALLEYS...

CITY           SKY/WX    TMP DP  RH WIND       PRES   REMARKS
GRAND JUNCTION FAIR      61  12  14 W7        30.42S
MONTROSE       FAIR      59   8  13 NW6       30.45S
EAGLE          FAIR      62  12  14 SW6       30.46S
RIFLE          FAIR      61  10  13 CALM      30.42S
DELTA          FAIR      65   5   9 SW9       30.42F
NUCLA          FAIR      64   0   7 N3        30.47F
$$

COZ017>023-064>068-160100-
...SOUTHWEST COLORADO...

CITY           SKY/WX    TMP DP  RH WIND       PRES   REMARKS
DURANGO        FAIR      63  10  12 SW7       30.45S
CORTEZ         FAIR      61  14  16 S8        30.44S
PAGOSA SPRINGS FAIR      63  -2   7 SW6       30.50S
TELLURIDE      NOT AVBL
WOLF CREEK PAS FAIR      43   3  19 SW15G23   30.76R
$$

COZ009-010-012-014-032>034-037-058>063-160100-
...CENTRAL COLORADO...

CITY           SKY/WX    TMP DP  RH WIND       PRES   REMARKS
ASPEN          FAIR      54  10  17 W6        30.48S
BUENA VISTA    FAIR      60   4  10 W7        30.46R
COPPER MTN     FAIR      43  -4  14 NW16G25   30.68S
BERTHOUD PASS  FAIR      32  23  69 NW23G36   30.67S WCI  19
COTTONWOOD PAS FAIR      59  -9   6 SW13G22   30.57R
GUNNISON       FAIR      60   9  13 SW12      30.48S
KREMMLING      FAIR      61   9  12 N5        30.49S
LEADVILLE      FAIR      49  -4  11 NW10      30.58R
MONARCH PASS   FAIR      41   3  20 W22G29    30.79S
SALIDA         NOT AVBL
SUNLIGHT       FAIR      41   7  24 SW8G17    30.67S
WILKERSON PASS FAIR      45  -6  12 W8        30.67S
$$

COZ069>075-160100-
...SAN LUIS VALLEY/SANGRE DE CRISTO MOUNTAINS...

CITY           SKY/WX    TMP DP  RH WIND       PRES   REMARKS
ALAMOSA        FAIR      60  -1   8 S5        30.47S
DEL NORTE      FAIR      57  10  15 E5        30.50S
LA VETA PASS   FAIR      48   0  13 SW6       30.72S
SAGUACHE       FAIR      57  10  15 CALM      30.50S
$$

COZ035-036-038>040-160100-
...NORTHERN COLORADO FRONT RANGE...

CITY           SKY/WX    TMP DP  RH WIND       PRES   REMARKS
DENVER INTL AP FAIR      57  21  24 E8        30.38S
DMNS CITY PARK   N/A     60  16  18 N10       30.38S
AURORA         CLEAR     59  22  24 NE6       30.39S
FRONT RANGE AP CLEAR     61  21  21 E7        30.39S
ERIE MUNI ARPT FAIR      57  28  33 W5        30.44R
BOULDER MUN AP FAIR      57  28  33 CALM      30.39S
CENTENNIAL     FAIR      60  22  23 N9        30.39S
BROOMFIELD     CLEAR     57  28  33 NW5       30.40F
FORT COLLINS   FAIR      57  28  33 SW5       30.39S
LONGMONT       FAIR      58  29  32 W5        30.40S
$$

COZ041-046-047-076>085-087-088-160100-
...PIKES PEAK/PALMER DIVIDE AND SOUTHERN FOOTHILLS...

CITY           SKY/WX    TMP DP  RH WIND       PRES   REMARKS
COLO. SPRINGS  FAIR      55  20  25 S8        30.45R
A. F. ACADEMY  FAIR      55  15  20 S9        30.44S
SCHRIEVER AFB  FAIR      52  18  25 S6        30.45R
CHEYENNE MTN   FAIR      50  18  28 S10       30.41S
ELLICOTT       FAIR     N/A N/A N/A MISG      30.44R
FALCON         FAIR      52  17  24 S10       30.47S
FORT CARSON    FAIR      56  21  25 SE7       30.42S
LIMON          FAIR      54  22  28 S7        30.41S
MONUMENT HILL  FAIR      52  21  30 S8        30.46S
CANON CITY     CLEAR     61  21  21 E6        30.40S
WALSENBURG     NOT AVBL
TRINIDAD       FAIR      62  25  24 S5        30.40S
$$

COZ042>045-048>051-090-091-160100-
...NORTHEAST COLORADO...

CITY           SKY/WX    TMP DP  RH WIND       PRES   REMARKS
GREELEY ARPT   FAIR      60  28  29 SE3       30.38F
AKRON          FAIR      58  21  24 S3        30.38S
BURLINGTON     FAIR      56  25  30 SW7       30.39
WRAY           FAIR      61  23  23 CALM      30.37S
YUMA           FAIR      59  23  25 CALM      30.37S
STERLING       FAIR      61  28  29 CALM      30.34S
HOLYOKE        FAIR      61  28  29 CALM      30.36F
FORT MORGAN    FAIR      58  18  20 SE3       30.38S
$$

COZ086-089-092>099-160100-
...SOUTHEAST COLORADO...

CITY           SKY/WX    TMP DP  RH WIND       PRES   REMARKS
PUEBLO         FAIR      62  22  21 E8        30.38S
LA JUNTA       FAIR      63  24  22 E6        30.36S
LAMAR          FAIR      61  23  23 SE7       30.36S
SPRINGFIELD      N/A     54  26  34 S10       30.41S
$$




USA.gov is the U.S. government's official web portal to all federal, state and local government web resources and services.